Time,TemperatureF,DewpointF,PressureIn,WindDirection,WindDirectionDegrees,WindSpeedMPH,WindSpeedGustMPH,Humidity,HourlyPrecipIn,Conditions,Clouds,dailyrainin,SoftwareType,DateUTC
2013-06-02 00:03:00,61.1,57.2,29.86,West,267,5.0,6.0,87,0.00,,,0.00,Wunderground v.1.15,2013-06-02 05:03:00,
2013-06-02 00:09:00,61.0,57.1,29.86,NE,55,4.0,6.0,87,0.00,,,0.00,Wunderground v.1.15,2013-06-02 05:09:00,
2013-06-02 00:14:00,60.9,57.0,29.87,North,5,4.0,9.0,87,0.00,,,0.00,Wunderground v.1.15,2013-06-02 05:14:00,
2013-06-02 00:20:00,60.9,57.3,29.86,NW,319,4.0,9.0,88,0.00,,,0.00,Wunderground v.1.15,2013-06-02 05:20:00,
2013-06-02 00:25:00,61.0,57.1,29.86,NW,321,5.0,9.0,87,0.00,,,0.00,Wunderground v.1.15,2013-06-02 05:25:00,
2013-06-02 00:31:00,60.9,57.3,29.86,NNW,328,5.0,10.0,88,0.00,,,0.00,Wunderground v.1.15,2013-06-02 05:31:00,
2013-06-02 00:37:00,61.0,57.1,29.86,NW,326,5.0,13.0,87,0.00,,,0.00,Wunderground v.1.15,2013-06-02 05:37:00,
2013-06-02 00:42:00,61.0,57.1,29.86,North,5,5.0,13.0,87,0.00,,,0.00,Wunderground v.1.15,2013-06-02 05:42:00,
2013-06-02 00:48:00,61.0,57.1,29.86,NW,318,4.0,13.0,87,0.00,,,0.00,Wunderground v.1.15,2013-06-02 05:48:00,
2013-06-02 00:53:00,61.0,57.1,29.86,SSW,212,4.0,13.0,87,0.00,,,0.00,Wunderground v.1.15,2013-06-02 05:53:00,
2013-06-02 00:59:00,61.0,57.1,29.85,ENE,63,3.0,13.0,87,0.00,,,0.00,Wunderground v.1.15,2013-06-02 05:59:00,
2013-06-02 01:04:00,61.0,57.1,29.86,NW,319,3.0,13.0,87,0.00,,,0.00,Wunderground v.1.15,2013-06-02 06:04:00,
2013-06-02 01:10:00,60.9,57.0,29.86,ENE,67,3.0,3.0,87,0.00,,,0.00,Wunderground v.1.15,2013-06-02 06:10:00,
2013-06-02 01:15:00,60.9,57.0,29.86,NNW,328,3.0,13.0,87,0.00,,,0.00,Wunderground v.1.15,2013-06-02 06:15:00,
2013-06-02 01:21:00,60.9,57.0,29.86,NW,319,4.0,7.0,87,0.00,,,0.00,Wunderground v.1.15,2013-06-02 06:21:00,
2013-06-02 01:26:00,60.8,57.2,29.87,NW,319,4.0,13.0,88,0.00,,,0.00,Wunderground v.1.15,2013-06-02 06:26:00,
2013-06-02 01:32:00,60.8,56.9,29.86,NE,42,5.0,13.0,87,0.00,,,0.00,Wunderground v.1.15,2013-06-02 06:32:00,
2013-06-02 01:37:00,60.8,56.9,29.86,NNW,327,3.0,13.0,87,0.00,,,0.00,Wunderground v.1.15,2013-06-02 06:37:00,
2013-06-02 01:43:00,60.8,56.9,29.86,NW,317,3.0,13.0,87,0.00,,,0.00,Wunderground v.1.15,2013-06-02 06:43:00,
2013-06-02 01:48:00,60.9,57.0,29.87,NW,317,4.0,13.0,87,0.00,,,0.00,Wunderground v.1.15,2013-06-02 06:48:00,
2013-06-02 01:54:00,60.9,57.0,29.86,NNE,24,4.0,13.0,87,0.00,,,0.00,Wunderground v.1.15,2013-06-02 06:54:00,
2013-06-02 01:59:00,60.9,57.0,29.87,NW,323,4.0,13.0,87,0.00,,,0.00,Wunderground v.1.15,2013-06-02 06:59:00,
2013-06-02 02:05:00,60.9,57.0,29.87,NW,326,4.0,13.0,87,0.00,,,0.00,Wunderground v.1.15,2013-06-02 07:05:00,
2013-06-02 02:10:00,60.9,57.0,29.87,NE,36,3.0,13.0,87,0.00,,,0.00,Wunderground v.1.15,2013-06-02 07:10:00,
2013-06-02 02:16:00,60.9,56.7,29.87,North,355,3.0,13.0,86,0.00,,,0.00,Wunderground v.1.15,2013-06-02 07:16:00,
2013-06-02 02:22:00,60.9,56.7,29.87,NNE,32,3.0,13.0,86,0.00,,,0.00,Wunderground v.1.15,2013-06-02 07:22:00,
2013-06-02 02:28:00,60.8,56.6,29.87,NW,324,2.0,13.0,86,0.00,,,0.00,Wunderground v.1.15,2013-06-02 07:28:00,
2013-06-02 02:34:00,60.8,56.6,29.87,NNW,328,3.0,13.0,86,0.00,,,0.00,Wunderground v.1.15,2013-06-02 07:34:00,
2013-06-02 02:40:00,60.7,56.5,29.88,NW,310,3.0,3.0,86,0.00,,,0.00,Wunderground v.1.15,2013-06-02 07:40:00,
2013-06-02 02:46:00,60.7,56.5,29.88,NW,317,4.0,13.0,86,0.00,,,0.00,Wunderground v.1.15,2013-06-02 07:46:00,
2013-06-02 02:51:00,60.7,56.5,29.88,NW,326,3.0,13.0,86,0.00,,,0.00,Wunderground v.1.15,2013-06-02 07:51:00,
2013-06-02 02:56:00,60.7,56.5,29.88,North,11,3.0,13.0,86,0.00,,,0.00,Wunderground v.1.15,2013-06-02 07:56:00,
2013-06-02 03:02:00,60.6,56.4,29.88,NW,317,4.0,13.0,86,0.00,,,0.00,Wunderground v.1.15,2013-06-02 08:02:00,
2013-06-02 03:08:00,60.6,56.4,29.89,WNW,282,5.0,13.0,86,0.00,,,0.00,Wunderground v.1.15,2013-06-02 08:08:00,
2013-06-02 03:13:00,60.5,56.3,29.89,North,360,3.0,13.0,86,0.00,,,0.00,Wunderground v.1.15,2013-06-02 08:13:00,
2013-06-02 03:18:00,60.5,56.3,29.89,NW,317,3.0,13.0,86,0.00,,,0.00,Wunderground v.1.15,2013-06-02 08:18:00,
2013-06-02 03:23:00,60.5,56.3,29.90,NNW,334,4.0,13.0,86,0.00,,,0.00,Wunderground v.1.15,2013-06-02 08:23:00,
2013-06-02 03:29:00,60.5,56.3,29.90,NW,313,3.0,13.0,86,0.00,,,0.00,Wunderground v.1.15,2013-06-02 08:29:00,
2013-06-02 03:34:00,60.4,56.2,29.90,WNW,282,2.0,13.0,86,0.00,,,0.00,Wunderground v.1.15,2013-06-02 08:34:00,
2013-06-02 03:40:00,60.4,56.2,29.90,NE,51,2.0,2.0,86,0.00,,,0.00,Wunderground v.1.15,2013-06-02 08:40:00,
2013-06-02 03:45:00,60.4,56.2,29.90,NE,39,2.0,13.0,86,0.00,,,0.00,Wunderground v.1.15,2013-06-02 08:45:00,
2013-06-02 03:51:00,60.3,56.1,29.90,NNE,26,2.0,13.0,86,0.00,,,0.00,Wunderground v.1.15,2013-06-02 08:51:00,
2013-06-02 03:57:00,60.3,56.1,29.90,North,355,2.0,13.0,86,0.00,,,0.00,Wunderground v.1.15,2013-06-02 08:57:00,
2013-06-02 04:02:00,60.2,56.0,29.90,NNE,15,2.0,13.0,86,0.00,,,0.00,Wunderground v.1.15,2013-06-02 09:02:00,
2013-06-02 04:08:00,60.2,56.0,29.90,West,276,2.0,13.0,86,0.00,,,0.00,Wunderground v.1.15,2013-06-02 09:08:00,
2013-06-02 04:13:00,60.1,55.9,29.91,NW,317,2.0,13.0,86,0.00,,,0.00,Wunderground v.1.15,2013-06-02 09:13:00,
2013-06-02 04:19:00,60.0,55.8,29.90,NW,321,2.0,13.0,86,0.00,,,0.00,Wunderground v.1.15,2013-06-02 09:19:00,
2013-06-02 04:24:00,60.0,55.8,29.91,NNW,346,3.0,13.0,86,0.00,,,0.00,Wunderground v.1.15,2013-06-02 09:24:00,
2013-06-02 04:30:00,59.9,55.7,29.91,NW,311,3.0,3.0,86,0.00,,,0.00,Wunderground v.1.15,2013-06-02 09:30:00,
2013-06-02 04:35:00,59.9,55.7,29.91,NW,309,3.0,13.0,86,0.00,,,0.00,Wunderground v.1.15,2013-06-02 09:35:00,
2013-06-02 04:41:00,59.8,55.6,29.91,NE,45,3.0,13.0,86,0.00,,,0.00,Wunderground v.1.15,2013-06-02 09:41:00,
2013-06-02 04:46:00,59.8,55.6,29.91,North,9,3.0,13.0,86,0.00,,,0.00,Wunderground v.1.15,2013-06-02 09:46:00,
2013-06-02 04:52:00,59.8,55.6,29.92,NW,315,2.0,13.0,86,0.00,,,0.00,Wunderground v.1.15,2013-06-02 09:52:00,
2013-06-02 04:57:00,59.7,55.5,29.92,North,350,2.0,13.0,86,0.00,,,0.00,Wunderground v.1.15,2013-06-02 09:57:00,
2013-06-02 05:03:00,59.6,55.4,29.92,NE,34,2.0,13.0,86,0.00,,,0.00,Wunderground v.1.15,2013-06-02 10:03:00,
2013-06-02 05:08:00,59.6,55.4,29.92,North,355,2.0,13.0,86,0.00,,,0.00,Wunderground v.1.15,2013-06-02 10:08:00,
2013-06-02 05:14:00,59.5,55.3,29.92,NNW,331,2.0,13.0,86,0.00,,,0.00,Wunderground v.1.15,2013-06-02 10:14:00,
2013-06-02 05:19:00,59.5,55.3,29.92,NW,314,2.0,13.0,86,0.00,,,0.00,Wunderground v.1.15,2013-06-02 10:19:00,
2013-06-02 05:25:00,59.4,55.2,29.92,NNE,31,2.0,13.0,86,0.00,,,0.00,Wunderground v.1.15,2013-06-02 10:25:00,
2013-06-02 05:30:00,59.4,55.2,29.92,NNW,341,2.0,2.0,86,0.00,,,0.00,Wunderground v.1.15,2013-06-02 10:30:00,
2013-06-02 05:36:00,59.4,55.2,29.92,NW,318,2.0,13.0,86,0.00,,,0.00,Wunderground v.1.15,2013-06-02 10:36:00,
2013-06-02 05:41:00,59.3,54.8,29.92,WNW,293,2.0,13.0,85,0.00,,,0.00,Wunderground v.1.15,2013-06-02 10:41:00,
2013-06-02 05:47:00,59.3,55.1,29.93,North,9,2.0,13.0,86,0.00,,,0.00,Wunderground v.1.15,2013-06-02 10:47:00,
2013-06-02 05:52:00,59.3,54.8,29.93,NW,320,2.0,13.0,85,0.00,,,0.00,Wunderground v.1.15,2013-06-02 10:52:00,
2013-06-02 05:58:00,59.2,54.7,29.93,ENE,65,2.0,13.0,85,0.00,,,0.00,Wunderground v.1.15,2013-06-02 10:58:00,
2013-06-02 06:04:00,59.1,54.6,29.93,ENE,66,1.0,13.0,85,0.00,,,0.00,Wunderground v.1.15,2013-06-02 11:04:00,
2013-06-02 06:10:00,59.1,54.9,29.93,NNW,336,1.0,1.0,86,0.00,,,0.00,Wunderground v.1.15,2013-06-02 11:10:00,
2013-06-02 06:16:00,59.0,54.5,29.93,NNE,15,1.0,13.0,85,0.00,,,0.00,Wunderground v.1.15,2013-06-02 11:16:00,
2013-06-02 06:22:00,59.0,54.8,29.93,North,9,1.0,13.0,86,0.00,,,0.00,Wunderground v.1.15,2013-06-02 11:22:00,
2013-06-02 06:32:00,58.9,54.4,29.93,ENE,65,1.0,13.0,85,0.00,,,0.00,Wunderground v.1.15,2013-06-02 11:32:00,
2013-06-02 06:37:00,58.8,54.0,29.93,ENE,62,4.0,13.0,84,0.00,,,0.00,Wunderground v.1.15,2013-06-02 11:37:00,
2013-06-02 06:43:00,58.7,54.2,29.94,NE,34,4.0,13.0,85,0.00,,,0.00,Wunderground v.1.15,2013-06-02 11:43:00,
2013-06-02 06:48:00,58.7,54.2,29.94,WNW,283,3.0,13.0,85,0.00,,,0.00,Wunderground v.1.15,2013-06-02 11:48:00,
2013-06-02 06:54:00,58.8,54.3,29.94,NNE,15,2.0,13.0,85,0.00,,,0.00,Wunderground v.1.15,2013-06-02 11:54:00,
2013-06-02 06:59:00,58.8,54.0,29.94,East,79,3.0,13.0,84,0.00,,,0.00,Wunderground v.1.15,2013-06-02 11:59:00,
2013-06-02 07:05:00,58.8,54.0,29.94,NE,53,4.0,13.0,84,0.00,,,0.00,Wunderground v.1.15,2013-06-02 12:05:00,
2013-06-02 07:10:00,58.7,54.2,29.94,NE,53,4.0,13.0,85,0.00,,,0.00,Wunderground v.1.15,2013-06-02 12:10:00,
2013-06-02 07:16:00,58.7,54.2,29.94,NE,49,5.0,13.0,85,0.00,,,0.00,Wunderground v.1.15,2013-06-02 12:16:00,
2013-06-02 07:22:00,58.7,54.2,29.94,ENE,59,5.0,13.0,85,0.00,,,0.00,Wunderground v.1.15,2013-06-02 12:22:00,
2013-06-02 07:27:00,58.7,54.2,29.94,ENE,57,6.0,13.0,85,0.00,,,0.00,Wunderground v.1.15,2013-06-02 12:27:00,
2013-06-02 07:32:00,58.7,54.2,29.94,ENE,61,6.0,13.0,85,0.00,,,0.00,Wunderground v.1.15,2013-06-02 12:32:00,
2013-06-02 07:38:00,58.9,54.4,29.94,ENE,58,6.0,13.0,85,0.00,,,0.00,Wunderground v.1.15,2013-06-02 12:38:00,
2013-06-02 07:44:00,58.9,54.1,29.94,ENE,65,7.0,13.0,84,0.00,,,0.00,Wunderground v.1.15,2013-06-02 12:44:00,
2013-06-02 07:49:00,58.9,54.4,29.94,NE,53,8.0,13.0,85,0.00,,,0.00,Wunderground v.1.15,2013-06-02 12:49:00,
2013-06-02 07:54:00,59.2,54.7,29.95,NE,56,8.0,13.0,85,0.00,,,0.00,Wunderground v.1.15,2013-06-02 12:54:00,
2013-06-02 08:00:00,59.3,54.8,29.95,NE,50,6.0,13.0,85,0.00,,,0.00,Wunderground v.1.15,2013-06-02 13:00:00,
2013-06-02 08:05:00,59.3,54.1,29.95,NE,40,6.0,13.0,83,0.00,,,0.00,Wunderground v.1.15,2013-06-02 13:05:00,
2013-06-02 08:11:00,59.3,54.5,29.95,ENE,62,7.0,13.0,84,0.00,,,0.00,Wunderground v.1.15,2013-06-02 13:11:00,
2013-06-02 08:17:00,59.4,54.6,29.96,ENE,62,5.0,13.0,84,0.00,,,0.00,Wunderground v.1.15,2013-06-02 13:17:00,
2013-06-02 08:22:00,59.7,54.2,29.95,ENE,62,5.0,13.0,82,0.00,,,0.00,Wunderground v.1.15,2013-06-02 13:22:00,
2013-06-02 08:28:00,59.6,54.1,29.95,ENE,67,6.0,13.0,82,0.00,,,0.00,Wunderground v.1.15,2013-06-02 13:28:00,
2013-06-02 08:33:00,59.7,54.5,29.96,ENE,64,7.0,13.0,83,0.00,,,0.00,Wunderground v.1.15,2013-06-02 13:33:00,
2013-06-02 08:39:00,60.3,54.8,29.96,North,355,6.0,13.0,82,0.00,,,0.00,Wunderground v.1.15,2013-06-02 13:39:00,
2013-06-02 08:44:00,60.6,55.1,29.96,East,88,5.0,13.0,82,0.00,,,0.00,Wunderground v.1.15,2013-06-02 13:44:00,
2013-06-02 08:50:00,61.0,55.1,29.96,North,355,5.0,13.0,81,0.00,,,0.00,Wunderground v.1.15,2013-06-02 13:50:00,
2013-06-02 08:55:00,61.6,55.7,29.96,ESE,103,5.0,13.0,81,0.00,,,0.00,Wunderground v.1.15,2013-06-02 13:55:00,
2013-06-02 09:01:00,61.4,54.8,29.97,WSW,244,5.0,13.0,79,0.00,,,0.00,Wunderground v.1.15,2013-06-02 14:01:00,
2013-06-02 09:06:00,61.1,54.5,29.97,ENE,61,5.0,13.0,79,0.00,,,0.00,Wunderground v.1.15,2013-06-02 14:06:00,
2013-06-02 09:12:00,61.0,54.8,29.97,NE,56,5.0,13.0,80,0.00,,,0.00,Wunderground v.1.15,2013-06-02 14:12:00,
2013-06-02 09:17:00,60.8,54.6,29.98,ENE,64,5.0,13.0,80,0.00,,,0.00,Wunderground v.1.15,2013-06-02 14:17:00,
2013-06-02 09:23:00,60.7,54.1,29.98,NE,49,5.0,13.0,79,0.00,,,0.00,Wunderground v.1.15,2013-06-02 14:23:00,
2013-06-02 09:28:00,60.6,54.4,29.98,NE,39,5.0,13.0,80,0.00,,,0.00,Wunderground v.1.15,2013-06-02 14:28:00,
2013-06-02 09:34:00,60.5,54.3,29.98,ENE,68,5.0,13.0,80,0.00,,,0.00,Wunderground v.1.15,2013-06-02 14:34:00,
2013-06-02 09:40:00,60.6,54.4,29.98,NE,46,4.0,4.0,80,0.00,,,0.00,Wunderground v.1.15,2013-06-02 14:40:00,
2013-06-02 09:45:00,60.6,54.0,29.98,NE,47,3.0,13.0,79,0.00,,,0.00,Wunderground v.1.15,2013-06-02 14:45:00,
2013-06-02 09:50:00,60.4,54.2,29.98,West,281,4.0,4.0,80,0.00,,,0.00,Wunderground v.1.15,2013-06-02 14:50:00,
2013-06-02 09:56:00,60.3,54.1,29.99,NE,55,4.0,13.0,80,0.00,,,0.00,Wunderground v.1.15,2013-06-02 14:56:00,
2013-06-02 10:02:00,60.2,54.3,29.99,NW,309,4.0,13.0,81,0.00,,,0.00,Wunderground v.1.15,2013-06-02 15:02:00,
2013-06-02 10:07:00,60.3,54.4,29.99,East,80,3.0,13.0,81,0.00,,,0.00,Wunderground v.1.15,2013-06-02 15:07:00,
2013-06-02 10:13:00,60.2,54.3,29.99,North,11,4.0,13.0,81,0.00,,,0.00,Wunderground v.1.15,2013-06-02 15:13:00,
2013-06-02 10:18:00,60.3,54.4,29.99,NE,48,5.0,13.0,81,0.00,,,0.00,Wunderground v.1.15,2013-06-02 15:18:00,
2013-06-02 10:24:00,60.2,54.3,29.99,NE,51,5.0,13.0,81,0.00,,,0.00,Wunderground v.1.15,2013-06-02 15:24:00,
2013-06-02 10:29:00,60.3,54.4,29.99,NNE,27,5.0,13.0,81,0.00,,,0.00,Wunderground v.1.15,2013-06-02 15:29:00,
2013-06-02 10:35:00,60.4,54.5,29.99,NE,40,3.0,13.0,81,0.00,,,0.00,Wunderground v.1.15,2013-06-02 15:35:00,
2013-06-02 10:40:00,60.5,54.3,29.99,North,350,3.0,3.0,80,0.00,,,0.00,Wunderground v.1.15,2013-06-02 15:40:00,
2013-06-02 10:46:00,60.5,54.3,29.99,NW,314,2.0,13.0,80,0.00,,,0.00,Wunderground v.1.15,2013-06-02 15:46:00,
2013-06-02 10:51:00,60.6,54.7,30.00,ESE,122,2.0,5.0,81,0.00,,,0.00,Wunderground v.1.15,2013-06-02 15:51:00,
2013-06-02 11:00:00,60.6,54.0,30.00,SE,124,2.0,13.0,79,0.00,,,0.00,Wunderground v.1.15,2013-06-02 16:00:00,
2013-06-02 11:14:00,60.5,54.0,30.00,NE,54,4.0,13.0,79,0.00,,,0.00,Wunderground v.1.15,2013-06-02 16:14:00,
2013-06-02 11:24:00,59.8,53.6,30.00,ENE,75,6.0,13.0,80,0.00,,,0.00,Wunderground v.1.15,2013-06-02 16:24:00,
2013-06-02 11:29:00,59.8,54.0,30.00,ENE,71,6.0,13.0,81,0.00,,,0.00,Wunderground v.1.15,2013-06-02 16:29:00,
2013-06-02 11:34:00,59.6,53.8,30.00,NNE,20,6.0,13.0,81,0.00,,,0.00,Wunderground v.1.15,2013-06-02 16:34:00,
2013-06-02 11:40:00,59.4,53.6,30.01,NE,55,6.0,13.0,81,0.00,,,0.00,Wunderground v.1.15,2013-06-02 16:40:00,
2013-06-02 11:46:00,59.7,54.2,30.01,ENE,62,4.0,13.0,82,0.00,,,0.00,Wunderground v.1.15,2013-06-02 16:46:00,
2013-06-02 11:51:00,59.7,53.5,30.00,NE,55,5.0,5.0,80,0.00,,,0.00,Wunderground v.1.15,2013-06-02 16:51:00,
2013-06-02 11:56:00,59.7,53.9,30.01,East,84,5.0,13.0,81,0.00,,,0.00,Wunderground v.1.15,2013-06-02 16:56:00,
2013-06-02 12:02:00,59.5,53.3,30.01,ENE,71,5.0,13.0,80,0.00,,,0.00,Wunderground v.1.15,2013-06-02 17:02:00,
2013-06-02 12:08:00,59.4,53.2,30.01,ENE,66,5.0,13.0,80,0.00,,,0.00,Wunderground v.1.15,2013-06-02 17:08:00,
2013-06-02 12:16:00,59.3,53.8,30.01,NNE,31,4.0,13.0,82,0.00,,,0.00,Wunderground v.1.15,2013-06-02 17:16:00,
2013-06-02 12:25:00,58.9,53.4,30.01,NE,38,5.0,13.0,82,0.00,,,0.00,Wunderground v.1.15,2013-06-02 17:25:00,
2013-06-02 12:36:00,58.7,52.5,30.01,ENE,74,5.0,13.0,80,0.00,,,0.00,Wunderground v.1.15,2013-06-02 17:36:00,
2013-06-02 12:42:00,58.9,53.1,30.01,NE,51,5.0,13.0,81,0.00,,,0.00,Wunderground v.1.15,2013-06-02 17:42:00,
2013-06-02 12:47:00,59.2,53.0,30.02,NE,44,5.0,13.0,80,0.00,,,0.00,Wunderground v.1.15,2013-06-02 17:47:00,
2013-06-02 12:55:00,59.3,53.1,30.02,ENE,67,6.0,13.0,80,0.00,,,0.00,Wunderground v.1.15,2013-06-02 17:55:00,
2013-06-02 13:01:00,59.1,52.9,30.02,NE,49,5.0,6.0,80,0.00,,,0.00,Wunderground v.1.15,2013-06-02 18:01:00,
2013-06-02 13:08:00,59.4,53.2,30.02,NE,49,4.0,13.0,80,0.00,,,0.00,Wunderground v.1.15,2013-06-02 18:08:00,
2013-06-02 13:14:00,60.1,53.2,30.02,East,80,3.0,13.0,78,0.00,,,0.00,Wunderground v.1.15,2013-06-02 18:14:00,
2013-06-02 13:19:00,60.7,52.7,30.02,NE,49,3.0,13.0,75,0.00,,,0.00,Wunderground v.1.15,2013-06-02 18:19:00,
2013-06-02 13:25:00,60.8,53.5,30.02,NE,40,4.0,13.0,77,0.00,,,0.00,Wunderground v.1.15,2013-06-02 18:25:00,
2013-06-02 13:30:00,60.8,53.2,30.02,ENE,71,4.0,13.0,76,0.00,,,0.00,Wunderground v.1.15,2013-06-02 18:30:00,
2013-06-02 13:36:00,61.0,53.4,30.02,NNW,331,4.0,13.0,76,0.00,,,0.00,Wunderground v.1.15,2013-06-02 18:36:00,
2013-06-02 13:41:00,61.2,52.8,30.02,ENE,58,3.0,13.0,74,0.00,,,0.00,Wunderground v.1.15,2013-06-02 18:41:00,
2013-06-02 13:47:00,61.1,52.7,30.02,NE,56,4.0,13.0,74,0.00,,,0.00,Wunderground v.1.15,2013-06-02 18:47:00,
2013-06-02 14:05:00,61.9,52.4,30.02,ENE,62,4.0,13.0,71,0.00,,,0.00,Wunderground v.1.15,2013-06-02 19:05:00,
2013-06-02 14:15:00,62.1,53.0,30.02,ENE,60,4.0,13.0,72,0.00,,,0.00,Wunderground v.1.15,2013-06-02 19:15:00,
2013-06-02 14:20:00,62.2,53.4,30.02,ENE,59,4.0,13.0,73,0.00,,,0.00,Wunderground v.1.15,2013-06-02 19:20:00,
2013-06-02 14:26:00,62.5,53.0,30.02,ENE,77,4.0,13.0,71,0.00,,,0.00,Wunderground v.1.15,2013-06-02 19:26:00,
2013-06-02 14:31:00,63.0,53.8,30.02,NE,53,3.0,13.0,72,0.00,,,0.00,Wunderground v.1.15,2013-06-02 19:31:00,
2013-06-02 14:37:00,63.3,53.3,30.02,NNE,31,2.0,13.0,70,0.00,,,0.00,Wunderground v.1.15,2013-06-02 19:37:00,
2013-06-02 14:42:00,63.4,53.4,30.02,NE,45,3.0,13.0,70,0.00,,,0.00,Wunderground v.1.15,2013-06-02 19:42:00,
2013-06-02 14:48:00,63.1,53.5,30.02,NE,45,4.0,13.0,71,0.00,,,0.00,Wunderground v.1.15,2013-06-02 19:48:00,
2013-06-02 14:53:00,62.2,52.3,30.02,ENE,58,6.0,13.0,70,0.00,,,0.00,Wunderground v.1.15,2013-06-02 19:53:00,
2013-06-02 14:59:00,61.9,53.5,30.02,East,79,6.0,13.0,74,0.00,,,0.00,Wunderground v.1.15,2013-06-02 19:59:00,
2013-06-02 15:04:00,61.7,52.2,30.02,ENE,63,5.0,13.0,71,0.00,,,0.00,Wunderground v.1.15,2013-06-02 20:04:00,
2013-06-02 15:10:00,61.6,53.2,30.02,ENE,62,5.0,13.0,74,0.00,,,0.00,Wunderground v.1.15,2013-06-02 20:10:00,
2013-06-02 15:15:00,61.4,52.7,30.02,NE,55,5.0,13.0,73,0.00,,,0.00,Wunderground v.1.15,2013-06-02 20:15:00,
2013-06-02 15:21:00,61.2,52.1,30.02,NE,41,7.0,9.0,72,0.00,,,0.00,Wunderground v.1.15,2013-06-02 20:21:00,
2013-06-02 15:26:00,61.1,52.0,30.01,ENE,67,7.0,13.0,72,0.00,,,0.00,Wunderground v.1.15,2013-06-02 20:26:00,
2013-06-02 15:32:00,61.1,52.0,30.01,ENE,62,7.0,13.0,72,0.00,,,0.00,Wunderground v.1.15,2013-06-02 20:32:00,
2013-06-02 15:37:00,61.1,51.6,30.01,ENE,58,7.0,13.0,71,0.00,,,0.00,Wunderground v.1.15,2013-06-02 20:37:00,
2013-06-02 15:43:00,61.2,52.5,30.01,ENE,62,6.0,13.0,73,0.00,,,0.00,Wunderground v.1.15,2013-06-02 20:43:00,
2013-06-02 15:48:00,61.2,52.1,30.01,NE,53,6.0,13.0,72,0.00,,,0.00,Wunderground v.1.15,2013-06-02 20:48:00,
2013-06-02 15:54:00,61.3,52.2,30.01,ENE,73,5.0,13.0,72,0.00,,,0.00,Wunderground v.1.15,2013-06-02 20:54:00,
2013-06-02 16:00:00,61.4,52.7,30.02,ENE,57,4.0,13.0,73,0.00,,,0.00,Wunderground v.1.15,2013-06-02 21:00:00,
2013-06-02 16:05:00,61.4,52.3,30.02,ENE,67,4.0,13.0,72,0.00,,,0.00,Wunderground v.1.15,2013-06-02 21:05:00,
2013-06-02 16:11:00,61.6,52.1,30.01,ENE,68,4.0,6.0,71,0.00,,,0.00,Wunderground v.1.15,2013-06-02 21:11:00,
2013-06-02 16:16:00,61.8,52.3,30.01,ENE,58,4.0,13.0,71,0.00,,,0.00,Wunderground v.1.15,2013-06-02 21:16:00,
2013-06-02 16:22:00,62.1,53.0,30.01,ENE,73,4.0,13.0,72,0.00,,,0.00,Wunderground v.1.15,2013-06-02 21:22:00,
2013-06-02 16:27:00,62.3,52.4,30.01,ENE,67,4.0,13.0,70,0.00,,,0.00,Wunderground v.1.15,2013-06-02 21:27:00,
2013-06-02 16:33:00,62.4,52.5,30.01,NNE,19,5.0,13.0,70,0.00,,,0.00,Wunderground v.1.15,2013-06-02 21:33:00,
2013-06-02 16:38:00,62.5,51.8,30.00,NE,48,5.0,13.0,68,0.00,,,0.00,Wunderground v.1.15,2013-06-02 21:38:00,
2013-06-02 16:44:00,62.5,52.2,30.00,NE,49,5.0,13.0,69,0.00,,,0.00,Wunderground v.1.15,2013-06-02 21:44:00,
2013-06-02 16:49:00,62.3,52.0,30.00,East,84,5.0,13.0,69,0.00,,,0.00,Wunderground v.1.15,2013-06-02 21:49:00,
2013-06-02 16:55:00,62.2,53.1,30.00,ENE,68,4.0,13.0,72,0.00,,,0.00,Wunderground v.1.15,2013-06-02 21:55:00,
2013-06-02 17:00:00,62.1,53.0,30.00,NE,53,4.0,13.0,72,0.00,,,0.00,Wunderground v.1.15,2013-06-02 22:00:00,
2013-06-02 17:06:00,61.7,52.6,30.00,ENE,70,6.0,13.0,72,0.00,,,0.00,Wunderground v.1.15,2013-06-02 22:06:00,
2013-06-02 17:11:00,61.4,51.9,30.00,ENE,57,6.0,13.0,71,0.00,,,0.00,Wunderground v.1.15,2013-06-02 22:11:00,
2013-06-02 17:17:00,61.4,51.9,30.00,ENE,70,6.0,13.0,71,0.00,,,0.00,Wunderground v.1.15,2013-06-02 22:17:00,
2013-06-02 17:22:00,61.3,52.2,30.01,ENE,57,6.0,13.0,72,0.00,,,0.00,Wunderground v.1.15,2013-06-02 22:22:00,
2013-06-02 17:31:00,61.2,52.5,30.01,ESE,123,6.0,13.0,73,0.00,,,0.00,Wunderground v.1.15,2013-06-02 22:31:00,
2013-06-02 17:37:00,61.1,52.0,30.01,East,101,5.0,13.0,72,0.00,,,0.00,Wunderground v.1.15,2013-06-02 22:37:00,
2013-06-02 17:42:00,61.0,52.3,30.01,NE,40,4.0,13.0,73,0.00,,,0.00,Wunderground v.1.15,2013-06-02 22:42:00,
2013-06-02 17:48:00,60.9,51.8,30.01,East,92,5.0,13.0,72,0.00,,,0.00,Wunderground v.1.15,2013-06-02 22:48:00,
2013-06-02 17:53:00,60.8,51.3,30.01,East,84,5.0,13.0,71,0.00,,,0.00,Wunderground v.1.15,2013-06-02 22:53:00,
2013-06-02 17:59:00,60.8,52.5,30.01,ENE,65,4.0,13.0,74,0.00,,,0.00,Wunderground v.1.15,2013-06-02 22:59:00,
2013-06-02 18:04:00,60.9,51.4,30.01,ENE,67,4.0,13.0,71,0.00,,,0.00,Wunderground v.1.15,2013-06-02 23:04:00,
2013-06-02 18:10:00,61.0,51.5,30.01,NE,40,5.0,5.0,71,0.00,,,0.00,Wunderground v.1.15,2013-06-02 23:10:00,
2013-06-02 18:15:00,61.0,51.9,30.01,NE,52,5.0,13.0,72,0.00,,,0.00,Wunderground v.1.15,2013-06-02 23:15:00,
2013-06-02 18:21:00,60.9,51.8,30.01,ENE,74,5.0,13.0,72,0.00,,,0.00,Wunderground v.1.15,2013-06-02 23:21:00,
2013-06-02 18:27:00,60.4,52.4,30.01,East,90,4.0,13.0,75,0.00,,,0.00,Wunderground v.1.15,2013-06-02 23:27:00,
2013-06-02 18:33:00,60.1,52.1,30.01,ENE,73,4.0,13.0,75,0.00,,,0.00,Wunderground v.1.15,2013-06-02 23:33:00,
2013-06-02 18:39:00,59.8,52.2,30.01,ENE,74,4.0,13.0,76,0.00,,,0.00,Wunderground v.1.15,2013-06-02 23:39:00,
2013-06-02 18:44:00,59.6,52.0,30.01,ESE,104,4.0,13.0,76,0.00,,,0.00,Wunderground v.1.15,2013-06-02 23:44:00,
2013-06-02 18:50:00,59.5,51.9,30.01,ENE,57,4.0,13.0,76,0.00,,,0.00,Wunderground v.1.15,2013-06-02 23:50:00,
2013-06-02 18:55:00,59.3,51.7,30.01,ENE,67,5.0,13.0,76,0.00,,,0.00,Wunderground v.1.15,2013-06-02 23:55:00,
2013-06-02 19:01:00,59.3,52.4,30.01,East,85,4.0,13.0,78,0.00,,,0.00,Wunderground v.1.15,2013-06-03 00:01:00,
2013-06-02 19:07:00,59.3,52.4,30.01,ENE,65,3.0,13.0,78,0.00,,,0.00,Wunderground v.1.15,2013-06-03 00:07:00,
2013-06-02 19:13:00,59.2,52.3,30.01,ENE,69,2.0,13.0,78,0.00,,,0.00,Wunderground v.1.15,2013-06-03 00:13:00,
2013-06-02 19:19:00,59.3,52.4,30.02,ENE,65,1.0,13.0,78,0.00,,,0.00,Wunderground v.1.15,2013-06-03 00:19:00,
2013-06-02 19:24:00,59.3,52.8,30.02,ENE,65,1.0,13.0,79,0.00,,,0.00,Wunderground v.1.15,2013-06-03 00:24:00,
2013-06-02 19:30:00,59.3,52.4,30.02,ENE,65,1.0,1.0,78,0.00,,,0.00,Wunderground v.1.15,2013-06-03 00:30:00,
2013-06-02 19:35:00,59.3,52.1,30.02,ENE,65,0.0,13.0,77,0.00,,,0.00,Wunderground v.1.15,2013-06-03 00:35:00,
2013-06-02 19:41:00,59.3,52.4,30.02,ENE,65,0.0,13.0,78,0.00,,,0.00,Wunderground v.1.15,2013-06-03 00:41:00,
2013-06-02 19:46:00,59.2,52.0,30.02,ENE,65,0.0,13.0,77,0.00,,,0.00,Wunderground v.1.15,2013-06-03 00:46:00,
2013-06-02 19:52:00,59.2,52.0,30.02,ENE,65,0.0,13.0,77,0.00,,,0.00,Wunderground v.1.15,2013-06-03 00:52:00,
2013-06-02 19:57:00,59.2,52.0,30.02,ENE,65,0.0,13.0,77,0.00,,,0.00,Wunderground v.1.15,2013-06-03 00:57:00,
2013-06-02 20:03:00,59.1,51.9,30.02,ENE,65,1.0,13.0,77,0.00,,,0.00,Wunderground v.1.15,2013-06-03 01:03:00,
2013-06-02 20:08:00,59.1,52.6,30.02,East,80,1.0,13.0,79,0.00,,,0.00,Wunderground v.1.15,2013-06-03 01:08:00,
2013-06-02 20:14:00,59.0,52.8,30.02,East,80,1.0,13.0,80,0.00,,,0.00,Wunderground v.1.15,2013-06-03 01:14:00,
2013-06-02 20:19:00,58.9,52.4,30.02,East,80,1.0,13.0,79,0.00,,,0.00,Wunderground v.1.15,2013-06-03 01:19:00,
2013-06-02 20:37:00,58.5,51.7,30.02,East,82,1.0,13.0,78,0.00,,,0.00,Wunderground v.1.15,2013-06-03 01:37:00,
2013-06-02 20:42:00,58.5,51.7,30.02,East,82,1.0,13.0,78,0.00,,,0.00,Wunderground v.1.15,2013-06-03 01:42:00,
2013-06-02 20:48:00,58.4,51.6,30.02,East,82,1.0,13.0,78,0.00,,,0.00,Wunderground v.1.15,2013-06-03 01:48:00,
2013-06-02 20:54:00,58.3,51.5,30.02,East,82,1.0,13.0,78,0.00,,,0.00,Wunderground v.1.15,2013-06-03 01:54:00,
2013-06-02 20:59:00,58.3,51.5,30.02,East,82,0.0,13.0,78,0.00,,,0.00,Wunderground v.1.15,2013-06-03 01:59:00,
2013-06-02 21:21:00,58.0,52.5,30.02,East,82,1.0,13.0,82,0.00,,,0.00,Wunderground v.1.15,2013-06-03 02:21:00,
2013-06-02 21:27:00,58.0,52.5,30.02,East,82,1.0,13.0,82,0.00,,,0.00,Wunderground v.1.15,2013-06-03 02:27:00,
2013-06-02 21:32:00,57.9,52.4,30.02,East,82,1.0,13.0,82,0.00,,,0.00,Wunderground v.1.15,2013-06-03 02:32:00,
2013-06-02 21:37:00,57.8,52.3,30.02,East,82,1.0,13.0,82,0.00,,,0.00,Wunderground v.1.15,2013-06-03 02:37:00,
2013-06-02 21:43:00,57.8,52.0,30.02,East,82,0.0,13.0,81,0.00,,,0.00,Wunderground v.1.15,2013-06-03 02:43:00,
2013-06-02 21:49:00,57.7,52.2,30.03,East,82,0.0,13.0,82,0.00,,,0.00,Wunderground v.1.15,2013-06-03 02:49:00,
2013-06-02 21:54:00,57.7,52.2,30.03,East,82,1.0,13.0,82,0.00,,,0.00,Wunderground v.1.15,2013-06-03 02:54:00,
2013-06-02 22:00:00,57.8,52.3,30.03,East,82,2.0,2.0,82,0.00,,,0.00,Wunderground v.1.15,2013-06-03 03:00:00,
2013-06-02 22:05:00,57.7,52.2,30.03,East,82,1.0,13.0,82,0.00,,,0.00,Wunderground v.1.15,2013-06-03 03:05:00,
2013-06-02 22:11:00,57.7,52.2,30.03,East,82,0.0,13.0,82,0.00,,,0.00,Wunderground v.1.15,2013-06-03 03:11:00,
2013-06-02 22:17:00,57.7,52.2,30.03,East,82,0.0,13.0,82,0.00,,,0.00,Wunderground v.1.15,2013-06-03 03:17:00,
2013-06-02 22:22:00,57.6,52.1,30.03,East,82,0.0,13.0,82,0.00,,,0.00,Wunderground v.1.15,2013-06-03 03:22:00,
2013-06-02 22:28:00,57.5,52.4,30.04,East,82,0.0,13.0,83,0.00,,,0.00,Wunderground v.1.15,2013-06-03 03:28:00,
2013-06-02 22:33:00,57.3,50.8,30.04,East,82,1.0,13.0,79,0.00,,,0.00,Wunderground v.1.15,2013-06-03 03:33:00,
2013-06-02 22:38:00,57.2,50.7,30.04,East,82,1.0,13.0,79,0.00,,,0.00,Wunderground v.1.15,2013-06-03 03:38:00,
2013-06-02 22:44:00,57.0,50.2,30.04,East,82,0.0,13.0,78,0.00,,,0.00,Wunderground v.1.15,2013-06-03 03:44:00,
2013-06-02 22:49:00,56.8,50.4,30.03,East,82,0.0,13.0,79,0.00,,,0.00,Wunderground v.1.15,2013-06-03 03:49:00,
2013-06-02 22:55:00,56.6,50.2,30.04,East,82,0.0,13.0,79,0.00,,,0.00,Wunderground v.1.15,2013-06-03 03:55:00,
2013-06-02 23:00:00,56.3,50.2,30.03,East,82,0.0,13.0,80,0.00,,,0.00,Wunderground v.1.15,2013-06-03 04:00:00,
2013-06-02 23:01:00,56.3,50.2,30.03,East,82,0.0,13.0,80,0.00,,,0.00,Wunderground v.1.15,2013-06-03 04:01:00,
2013-06-02 23:02:00,56.3,50.2,30.03,East,82,0.0,13.0,80,0.00,,,0.00,Wunderground v.1.15,2013-06-03 04:02:00,
2013-06-02 23:03:00,56.2,50.1,30.03,East,82,0.0,13.0,80,0.00,,,0.00,Wunderground v.1.15,2013-06-03 04:03:00,
2013-06-02 23:04:00,56.2,50.1,30.03,East,82,0.0,13.0,80,0.00,,,0.00,Wunderground v.1.15,2013-06-03 04:04:00,
2013-06-02 23:05:00,56.1,50.3,30.03,East,82,0.0,13.0,81,0.00,,,0.00,Wunderground v.1.15,2013-06-03 04:05:00,
2013-06-02 23:11:00,55.9,50.5,30.03,East,82,0.0,13.0,82,0.00,,,0.00,Wunderground v.1.15,2013-06-03 04:11:00,
2013-06-02 23:16:00,55.6,50.5,30.03,East,82,0.0,13.0,83,0.00,,,0.00,Wunderground v.1.15,2013-06-03 04:16:00,
2013-06-02 23:22:00,55.0,50.6,30.04,East,82,0.0,13.0,85,0.00,,,0.00,Wunderground v.1.15,2013-06-03 04:22:00,
2013-06-02 23:28:00,54.5,50.1,30.04,East,82,0.0,13.0,85,0.00,,,0.00,Wunderground v.1.15,2013-06-03 04:28:00,
2013-06-02 23:33:00,54.2,49.8,30.04,East,82,0.0,13.0,85,0.00,,,0.00,Wunderground v.1.15,2013-06-03 04:33:00,
2013-06-02 23:39:00,54.1,49.7,30.04,East,82,0.0,13.0,85,0.00,,,0.00,Wunderground v.1.15,2013-06-03 04:39:00,
2013-06-02 23:44:00,54.0,49.9,30.03,East,82,0.0,13.0,86,0.00,,,0.00,Wunderground v.1.15,2013-06-03 04:44:00,
2013-06-02 23:49:00,53.9,49.8,30.03,East,82,0.0,13.0,86,0.00,,,0.00,Wunderground v.1.15,2013-06-03 04:49:00,
2013-06-02 23:55:00,53.8,49.7,30.04,East,82,0.0,13.0,86,0.00,,,0.00,Wunderground v.1.15,2013-06-03 04:55:00,